| time (UTC) | temp F | wind direction | speed MPH | gust MPH | rain 1hr in | rain 24hr in | rain mn in | humidity % | barometer mb |
| 20260906213816 | 59 | 267 | 5.0 | 9.0 | 0.00 | 0.24 | 0.24 | 76 | 1016.2 |
| 20260906212815 | 59 | 329 | 2.0 | 7.0 | 0.00 | 0.24 | 0.24 | 78 | 1016.1 |
| 20260906211815 | 59 | 322 | 3.0 | 6.0 | 0.00 | 0.24 | 0.24 | 79 | 1016.1 |
| 20260906210814 | 58 | 267 | 5.0 | 6.0 | 0.00 | 0.24 | 0.24 | 79 | 1016.2 |
| 20260906205817 | 58 | 290 | 3.0 | 5.0 | 0.00 | 0.24 | 0.24 | 79 | 1016.2 |
| 20260906204837 | 58 | 329 | 2.0 | 5.0 | 0.00 | 0.24 | 0.24 | 80 | 1016.2 |
| 20260906203837 | 58 | 307 | 1.0 | 3.0 | 0.00 | 0.24 | 0.24 | 81 | 1016.1 |
| 20260906202816 | 58 | 290 | 2.0 | 3.0 | 0.00 | 0.24 | 0.24 | 82 | 1016.1 |
| 20260906201815 | 58 | 237 | 1.0 | 2.0 | 0.00 | 0.24 | 0.24 | 82 | 1016.1 |
| 20260906200815 | 58 | 260 | 0.0 | 2.0 | 0.00 | 0.24 | 0.24 | 83 | 1016.2 |
| 20260906195818 | 57 | 279 | 1.0 | 1.0 | 0.00 | 0.24 | 0.24 | 82 | 1016.2 |
| 20260906194817 | 58 | 313 | 1.0 | 2.0 | 0.00 | 0.24 | 0.24 | 83 | 1016.2 |
| 20260906193837 | 57 | 324 | 1.0 | 2.0 | 0.00 | 0.24 | 0.24 | 83 | 1016.2 |
| 20260906192816 | 57 | 11 | 1.0 | 2.0 | 0.00 | 0.24 | 0.24 | 83 | 1016.2 |
| 20260906191816 | 57 | 255 | 0.0 | 2.0 | 0.00 | 0.24 | 0.24 | 84 | 1016.2 |
| 20260906190835 | 57 | 357 | 1.0 | 2.0 | 0.00 | 0.24 | 0.24 | 85 | 1016.3 |
| 20260906185815 | 56 | 356 | 0.0 | 2.0 | 0.00 | 0.24 | 0.24 | 84 | 1016.3 |
| 20260906184817 | 56 | 123 | 1.0 | 2.0 | 0.00 | 0.24 | 0.24 | 84 | 1016.3 |
| 20260906183817 | 56 | 123 | 1.0 | 2.0 | 0.00 | 0.24 | 0.24 | 84 | 1016.4 |
| 20260906182816 | 56 | 145 | 1.0 | 3.0 | 0.00 | 0.24 | 0.24 | 85 | 1016.4 |
| 20260906181816 | 55 | 156 | 1.0 | 3.0 | 0.00 | 0.24 | 0.24 | 84 | 1016.4 |
| 20260906180816 | 55 | 147 | 2.0 | 3.0 | 0.00 | 0.24 | 0.24 | 84 | 1016.4 |
| 20260906175815 | 55 | 168 | 1.0 | 2.0 | 0.00 | 0.24 | 0.24 | 84 | 1016.4 |
| 20260906174818 | 55 | 159 | 1.0 | 3.0 | 0.00 | 0.24 | 0.24 | 84 | 1016.4 |
| 20260906173817 | 55 | 150 | 1.0 | 2.0 | 0.00 | 0.24 | 0.24 | 84 | 1016.4 |
| 20260906172817 | 55 | 154 | 1.0 | 3.0 | 0.00 | 0.24 | 0.24 | 84 | 1016.3 |
| 20260906171816 | 55 | 139 | 1.0 | 2.0 | 0.00 | 0.24 | 0.24 | 84 | 1016.3 |
| 20260906170816 | 55 | 135 | 1.0 | 2.0 | 0.00 | 0.24 | 0.24 | 84 | 1016.3 |
| 20260906165815 | 55 | 167 | 1.0 | 2.0 | 0.00 | 0.23 | 0.23 | 85 | 1016.3 |
| 20260906164815 | 55 | 167 | 1.0 | 2.0 | 0.00 | 0.24 | 0.23 | 85 | 1016.3 |
| 20260906163838 | 54 | 143 | 2.0 | 3.0 | 0.03 | 0.24 | 0.23 | 85 | 1016.2 |
| 20260906162817 | 54 | 151 | 2.0 | 3.0 | 0.06 | 0.24 | 0.23 | 85 | 1016.2 |
| 20260906161816 | 54 | 146 | 1.0 | 3.0 | 0.08 | 0.24 | 0.23 | 84 | 1016.2 |
| 20260906160816 | 54 | 155 | 2.0 | 2.0 | 0.11 | 0.24 | 0.23 | 85 | 1016.2 |
| 20260906155836 | 54 | 153 | 1.0 | 2.0 | 0.14 | 0.24 | 0.23 | 84 | 1016.2 |
| 20260906154815 | 54 | 139 | 1.0 | 2.0 | 0.15 | 0.23 | 0.23 | 84 | 1016.2 |
| 20260906153818 | 54 | 148 | 2.0 | 2.0 | 0.14 | 0.21 | 0.20 | 84 | 1016.2 |
| 20260906152817 | 54 | 144 | 2.0 | 2.0 | 0.11 | 0.17 | 0.17 | 83 | 1016.1 |
| 20260906151816 | 55 | 137 | 1.0 | 2.0 | 0.10 | 0.15 | 0.15 | 83 | 1016.0 |
| 20260906150816 | 55 | 137 | 1.0 | 3.0 | 0.09 | 0.13 | 0.13 | 84 | 1015.9 |
| 20260906145816 | 55 | 280 | 1.0 | 3.0 | 0.06 | 0.10 | 0.10 | 84 | 1015.8 |
| 20260906144815 | 55 | 327 | 1.0 | 5.0 | 0.05 | 0.08 | 0.08 | 84 | 1015.6 |
| 20260906143815 | 55 | 258 | 2.0 | 5.0 | 0.04 | 0.07 | 0.07 | 84 | 1015.5 |
| 20260906142818 | 55 | 260 | 2.0 | 3.0 | 0.04 | 0.06 | 0.06 | 84 | 1015.3 |
| 20260906141837 | 55 | 58 | 1.0 | 2.0 | 0.02 | 0.05 | 0.05 | 84 | 1015.3 |
| 20260906140816 | 54 | 151 | 1.0 | 3.0 | 0.02 | 0.04 | 0.04 | 83 | 1015.1 |
| 20260906135816 | 54 | 158 | 2.0 | 4.0 | 0.01 | 0.04 | 0.04 | 83 | 1015.0 |
| 20260906134815 | 55 | 147 | 2.0 | 4.0 | 0.01 | 0.03 | 0.03 | 83 | 1014.9 |
| 20260906133815 | 55 | 166 | 1.0 | 4.0 | 0.00 | 0.03 | 0.03 | 82 | 1014.7 |
| 20260906132814 | 55 | 190 | 1.0 | 5.0 | 0.00 | 0.03 | 0.03 | 83 | 1014.7 |
| 20260906131817 | 54 | 242 | 3.0 | 4.0 | 0.00 | 0.03 | 0.03 | 84 | 1014.6 |
| 20260906130817 | 54 | 167 | 2.0 | 3.0 | 0.00 | 0.03 | 0.03 | 84 | 1014.6 |
| 20260906125816 | 54 | 146 | 2.0 | 3.0 | 0.00 | 0.03 | 0.03 | 84 | 1014.6 |
| 20260906124856 | 54 | 160 | 1.0 | 2.0 | 0.00 | 0.03 | 0.03 | 83 | 1014.6 |
| 20260906123835 | 54 | 158 | 1.0 | 2.0 | 0.00 | 0.03 | 0.03 | 83 | 1014.7 |
| 20260906122815 | 54 | 16 | 1.0 | 2.0 | 0.00 | 0.03 | 0.03 | 83 | 1014.7 |
| 20260906121817 | 54 | 148 | 2.0 | 2.0 | 0.00 | 0.03 | 0.03 | 83 | 1014.8 |
| 20260906120817 | 54 | 148 | 1.0 | 3.0 | 0.00 | 0.03 | 0.03 | 83 | 1014.8 |
| 20260906115817 | 54 | 161 | 2.0 | 3.0 | 0.00 | 0.03 | 0.03 | 83 | 1014.8 |
| 20260906114816 | 54 | 130 | 2.0 | 2.0 | 0.00 | 0.03 | 0.03 | 82 | 1014.9 |
| 20260906113816 | 55 | 119 | 1.0 | 4.0 | 0.00 | 0.03 | 0.03 | 82 | 1015.0 |
| 20260906112815 | 54 | 170 | 2.0 | 3.0 | 0.00 | 0.03 | 0.03 | 82 | 1014.9 |
| 20260906111814 | 54 | 222 | 2.0 | 4.0 | 0.00 | 0.03 | 0.03 | 83 | 1015.0 |
| 20260906110817 | 55 | 158 | 2.0 | 5.0 | 0.00 | 0.03 | 0.03 | 82 | 1014.9 |
| 20260906105837 | 54 | 255 | 2.0 | 3.0 | 0.01 | 0.03 | 0.03 | 83 | 1015.0 |
| 20260906104817 | 54 | 167 | 2.0 | 2.0 | 0.01 | 0.03 | 0.03 | 83 | 1015.2 |
| 20260906103816 | 54 | 162 | 2.0 | 3.0 | 0.02 | 0.03 | 0.03 | 82 | 1015.3 |
| 20260906102815 | 54 | 213 | 1.0 | 2.0 | 0.02 | 0.03 | 0.03 | 82 | 1015.4 |
| 20260906101835 | 55 | 166 | 1.0 | 3.0 | 0.02 | 0.03 | 0.03 | 81 | 1015.5 |
| 20260906100818 | 55 | 307 | 1.0 | 9.0 | 0.02 | 0.03 | 0.02 | 78 | 1015.4 |
| 20260906095817 | 55 | 287 | 2.0 | 3.0 | 0.02 | 0.02 | 0.02 | 81 | 1015.4 |
| 20260906094816 | 55 | 141 | 2.0 | 3.0 | 0.01 | 0.02 | 0.01 | 81 | 1015.5 |
| 20260906093816 | 55 | 69 | 1.0 | 2.0 | 0.01 | 0.02 | 0.01 | 80 | 1015.5 |
| 20260906092816 | 55 | 160 | 2.0 | 2.0 | 0.00 | 0.01 | 0.00 | 79 | 1015.4 |
| 20260906091815 | 55 | 159 | 2.0 | 3.0 | 0.00 | 0.01 | 0.00 | 76 | 1015.2 |
| 20260906090815 | 56 | 144 | 1.0 | 2.0 | 0.00 | 0.01 | 0.00 | 72 | 1015.1 |
| 20260906085817 | 56 | 137 | 1.0 | 2.0 | 0.00 | 0.01 | 0.00 | 71 | 1015.2 |
| 20260906084817 | 56 | 127 | 1.0 | 4.0 | 0.00 | 0.01 | 0.00 | 71 | 1015.2 |
| 20260906083817 | 55 | 149 | 2.0 | 3.0 | 0.00 | 0.01 | 0.00 | 75 | 1015.2 |
| 20260906082816 | 55 | 151 | 2.0 | 5.0 | 0.00 | 0.01 | 0.00 | 75 | 1015.2 |
| 20260906081816 | 55 | 162 | 2.0 | 5.0 | 0.00 | 0.01 | 0.00 | 74 | 1015.2 |
| 20260906080815 | 56 | 149 | 1.0 | 3.0 | 0.00 | 0.01 | 0.00 | 73 | 1015.1 |
| 20260906075818 | 56 | 174 | 1.0 | 4.0 | 0.00 | 0.01 | 0.00 | 73 | 1015.1 |
| 20260906074817 | 55 | 176 | 1.0 | 3.0 | 0.00 | 0.01 | 0.00 | 75 | 1015.1 |
| 20260906073817 | 55 | 160 | 2.0 | 4.0 | 0.00 | 0.01 | 0.00 | 75 | 1015.1 |
| 20260906072816 | 56 | 163 | 2.0 | 4.0 | 0.00 | 0.01 | 0.00 | 73 | 1015.1 |
| 20260906071816 | 56 | 138 | 2.0 | 2.0 | 0.00 | 0.01 | 0.00 | 73 | 1015.2 |
| 20260906070817 | 56 | 150 | 2.0 | 2.0 | 0.00 | 0.01 | 0.00 | 72 | 1015.4 |
| 20260906065815 | 56 | 234 | 1.0 | 2.0 | 0.00 | 0.01 | 0.01 | 73 | 1015.3 |
| 20260906064858 | 55 | 142 | 2.0 | 4.0 | 0.00 | 0.01 | 0.01 | 75 | 1015.5 |
| 20260906063817 | 55 | 153 | 3.0 | 3.0 | 0.00 | 0.01 | 0.01 | 73 | 1015.5 |
| 20260906062817 | 56 | 151 | 2.0 | 3.0 | 0.00 | 0.01 | 0.01 | 73 | 1015.5 |
| 20260906061816 | 56 | 155 | 2.0 | 3.0 | 0.00 | 0.01 | 0.01 | 72 | 1015.5 |
| 20260906060816 | 57 | 149 | 2.0 | 2.0 | 0.00 | 0.01 | 0.01 | 71 | 1015.5 |
| 20260906055815 | 57 | 153 | 2.0 | 2.0 | 0.00 | 0.01 | 0.01 | 70 | 1015.5 |
| 20260906054815 | 58 | 160 | 2.0 | 3.0 | 0.00 | 0.01 | 0.01 | 69 | 1015.6 |
| 20260906053817 | 58 | 227 | 2.0 | 3.0 | 0.00 | 0.01 | 0.01 | 69 | 1015.6 |
| 20260906052817 | 58 | 144 | 1.0 | 2.0 | 0.00 | 0.01 | 0.01 | 69 | 1015.7 |
| 20260906051816 | 58 | 145 | 2.0 | 2.0 | 0.00 | 0.01 | 0.01 | 70 | 1015.6 |
| 20260906050816 | 58 | 160 | 1.0 | 2.0 | 0.00 | 0.01 | 0.01 | 70 | 1015.6 |
| 20260906045815 | 58 | 156 | 2.0 | 3.0 | 0.00 | 0.01 | 0.01 | 68 | 1015.7 |
| 20260906044835 | 58 | 149 | 2.0 | 3.0 | 0.00 | 0.01 | 0.01 | 68 | 1015.8 |
| 20260906043838 | 58 | 167 | 2.0 | 3.0 | 0.00 | 0.01 | 0.01 | 68 | 1015.7 |
| 20260906042817 | 58 | 144 | 2.0 | 3.0 | 0.00 | 0.01 | 0.01 | 68 | 1015.7 |
| 20260906041817 | 58 | 145 | 2.0 | 3.0 | 0.00 | 0.01 | 0.01 | 67 | 1015.7 |
| 20260906040836 | 58 | 136 | 2.0 | 3.0 | 0.00 | 0.01 | 0.01 | 67 | 1015.7 |
| 20260906035816 | 59 | 169 | 2.0 | 4.0 | 0.00 | 0.01 | 0.01 | 67 | 1015.6 |
| 20260906034815 | 59 | 129 | 2.0 | 2.0 | 0.00 | 0.01 | 0.01 | 65 | 1015.4 |
| 20260906033815 | 60 | 164 | 1.0 | 6.0 | 0.00 | 0.01 | 0.01 | 63 | 1015.4 |
| 20260906032837 | 61 | 249 | 3.0 | 6.0 | 0.00 | 0.01 | 0.01 | 62 | 1015.3 |
| 20260906031817 | 62 | 187 | 2.0 | 4.0 | 0.00 | 0.01 | 0.01 | 59 | 1015.1 |
| 20260906030837 | 63 | 266 | 3.0 | 7.0 | 0.00 | 0.01 | 0.01 | 58 | 1015.0 |
| 20260906025816 | 61 | 159 | 1.0 | 3.0 | 0.00 | 0.01 | 0.01 | 62 | 1014.9 |
| 20260906024816 | 61 | 199 | 2.0 | 5.0 | 0.00 | 0.01 | 0.01 | 62 | 1014.9 |
| 20260906023835 | 61 | 163 | 2.0 | 3.0 | 0.00 | 0.01 | 0.01 | 61 | 1014.9 |
| 20260906022837 | 62 | 160 | 2.0 | 4.0 | 0.00 | 0.01 | 0.01 | 60 | 1014.8 |
| 20260906021817 | 64 | 152 | 2.0 | 4.0 | 0.00 | 0.01 | 0.01 | 56 | 1014.9 |
| 20260906020837 | 68 | 182 | 2.0 | 4.0 | 0.00 | 0.01 | 0.01 | 49 | 1014.8 |
| 20260906015816 | 69 | 254 | 1.0 | 4.0 | 0.00 | 0.01 | 0.01 | 48 | 1014.8 |
| 20260906014816 | 70 | 181 | 1.0 | 5.0 | 0.00 | 0.01 | 0.01 | 47 | 1014.8 |
| 20260906013815 | 71 | 1 | 1.0 | 2.0 | 0.00 | 0.01 | 0.01 | 44 | 1014.8 |
| 20260906012815 | 71 | 313 | 1.0 | 2.0 | 0.00 | 0.01 | 0.01 | 43 | 1015.0 |
| 20260906011817 | 72 | 127 | 1.0 | 2.0 | 0.00 | 0.01 | 0.01 | 44 | 1015.0 |
| 20260906010817 | 71 | 356 | 1.0 | 3.0 | 0.00 | 0.01 | 0.01 | 43 | 1014.9 |
| 20260906005816 | 71 | 356 | 1.0 | 3.0 | 0.00 | 0.01 | 0.01 | 43 | 1015.0 |
| 20260906004816 | 71 | 37 | 1.0 | 3.0 | 0.00 | 0.01 | 0.01 | 45 | 1015.1 |
| 20260906003836 | 70 | 243 | 1.0 | 4.0 | 0.00 | 0.01 | 0.01 | 46 | 1015.1 |
| 20260906002835 | 69 | 260 | 2.0 | 4.0 | 0.00 | 0.01 | 0.01 | 46 | 1015.2 |
| 20260906001818 | 68 | 247 | 2.0 | 5.0 | 0.00 | 0.01 | 0.01 | 54 | 1015.3 |
| 20260906000817 | 67 | 185 | 1.0 | 4.0 | 0.00 | 0.01 | 0.01 | 54 | 1015.3 |
| 20260905235817 | 68 | 133 | 1.0 | 4.0 | 0.00 | 0.00 | 0.00 | 48 | 1015.4 |
| 20260905234816 | 69 | 142 | 0.0 | 3.0 | 0.00 | 0.00 | 0.00 | 46 | 1015.3 |
| 20260905233816 | 69 | 272 | 1.0 | 4.0 | 0.00 | 0.00 | 0.00 | 43 | 1015.2 |
| 20260905232815 | 68 | 284 | 1.0 | 6.0 | 0.00 | 0.00 | 0.00 | 44 | 1015.2 |
| 20260905231815 | 68 | 261 | 4.0 | 6.0 | 0.00 | 0.00 | 0.00 | 44 | 1015.2 |
| 20260905230818 | 69 | 293 | 2.0 | 4.0 | 0.00 | 0.01 | 0.00 | 44 | 1015.2 |
| 20260905225817 | 69 | 343 | 2.0 | 4.0 | 0.00 | 0.01 | 0.00 | 43 | 1015.3 |
| 20260905224837 | 69 | 310 | 1.0 | 6.0 | 0.00 | 0.01 | 0.00 | 44 | 1015.2 |
| 20260905223816 | 69 | 335 | 2.0 | 5.0 | 0.00 | 0.01 | 0.00 | 43 | 1015.1 |
| 20260905222815 | 69 | 342 | 2.0 | 5.0 | 0.00 | 0.01 | 0.00 | 42 | 1015.2 |
| 20260905221815 | 70 | 345 | 2.0 | 4.0 | 0.00 | 0.01 | 0.00 | 42 | 1015.3 |
| 20260905220818 | 70 | 43 | 1.0 | 2.0 | 0.00 | 0.01 | 0.00 | 42 | 1015.3 |
| 20260905215817 | 70 | 332 | 1.0 | 2.0 | 0.00 | 0.01 | 0.00 | 42 | 1015.2 |
| 20260905214817 | 70 | 337 | 1.0 | 3.0 | 0.00 | 0.01 | 0.00 | 42 | 1015.3 |